Lid_Strength_Index
0 0 -0 -0 -1 -1 -1 -2 -2 4 5 7 4 3 4 3 2 2 4 3 4 5 6 9 8 9 11 11
1 0 -0 -0 -0 -1 -0 -0 1 4 6 5 3 4 3 4 3 3 4 3 4 6 7 7 9 10 10 12
1 1 0 0 -1 0 -0 1 4 5 7 5 5 5 4 5 5 5 5 5 5 7 7 8 9 10 10 10
1 1 1 0 -0 3 3 4 4 6 6 7 6 5 5 5 5 6 6 6 6 8 8 9 12 11 11 11
1 1 2 2 4 5 5 7 7 7 7 6 5 6 6 6 5 6 8 7 8 11 12 11 11 11 11 11
2 2 2 4 5 4 7 7 7 7 6 6 7 6 5 7 7 8 8 8 11 11 11 11 11 11 12 11
2 3 3 4 3 4 7 7 7 7 7 6 8 8 6 7 8 9 9 10 12 11 12 12 12 12 13 13
4 2 3 3 2 3 9 9 8 7 7 7 9 7 7 8 8 10 10 11 11 12 12 13 13 12 13 14
2 4 3 1 1 3 12 9 8 6 7 8 8 8 7 7 9 10 10 12 12 12 13 13 13 13 12 12
2 2 1 2 2 9 13 10 8 9 9 8 9 8 8 7 8 10 10 12 11 12 13 13 13 13 12 12
3 1 1 3 9 11 9 10 10 9 9 10 10 9 10 10 10 11 11 12 12 12 12 13 12 12 12 13
2 2 3 7 11 9 9 9 9 9 10 9 10 10 10 10 11 11 11 11 13 13 12 14 14 13 13 14
3 2 5 10 10 8 8 10 9 10 10 10 10 10 10 11 11 12 12 12 13 13 13 13 14 13 13 14
3 3 7 10 8 8 9 9 10 9 10 10 11 10 11 11 12 12 11 12 13 13 14 13 13 13 13 15
3 5 9 8 8 8 8 9 9 10 9 10 10 10 11 12 12 12 12 12 12 14 13 13 14 13 14 14
7 6 8 7 9 8 9 9 9 9 9 10 10 10 11 11 11 11 13 12 12 12 14 14 14 14 14 14
8 8 8 9 8 9 9 9 9 9 9 10 11 11 11 12 12 12 12 12 12 13 15 15 14 14 14 15